Regional Weather Roundup
Issued by NWS

Home | Current Version | Previous Version | Graphics & Text | Print | Product List | Glossary On
Versions: 1 2 3 4 5 6 7 8 9 10 11 12 13 14 15 16 17 18 19 20 21 22 23 24 25 26 27 28 29 30 31 32 33 34 35 36 37 38 39 40 41 42 43 44 45 46 47 48 49 50
000
ASUS43 KLMK 050610
RWRKY
KENTUCKY REGIONAL WEATHER ROUNDUP
NATIONAL WEATHER SERVICE LOUISVILLE KY
100 AM EST THU MAR 05 2015

NOTE "FAIR" INDICATES FEW OR NO CLOUDS BELOW 12,000 FEET
WITH NO SIGNIFICANT WEATHER AND/OR OBSTRUCTIONS TO VISIBILITY.

KYZ001>023-026-027-061>063-070>075-050700-
WESTERN AND SOUTH CENTRAL KENTUCKY

CITY           SKY/WX    TMP DP  RH WIND       PRES   REMARKS
PADUCAH        FOG       19  15  84 N14       30.30F VSB 3/4 WCI   6
HENDERSON      CLOUDY    19  10  68 N10       30.32R WCI   8
OWENSBORO      LGT SNOW  18  16  92 N7        30.29S VSB 1   WCI   9
HOPKINSVILLE   LGT SNOW  19  16  86 N13       30.22S VSB 1   WCI   7
BOWLING GREEN  LGT SNOW  23  20  88 N8        30.21S VSB 1   WCI  14
GLASGOW        LGT SNOW  26  26 100 N12       30.18R WCI  16
$$

KYZ024-025-028>034-038-045-046-053-050700-
NORTH CENTRAL KENTUCKY

CITY           SKY/WX    TMP DP  RH WIND       PRES   REMARKS
LOUISVILLE/SDF LGT SNOW  22  19  89 N14       30.25R VSB 3/4 WCI   9
LOUISVILLE/LOU LGT SNOW  22  19  89 N13G18    30.25R VSB 1   WCI  10
FORT KNOX      SNOW      22  19  89 N10       30.21R VSB 1/2 WCI  11
$$

KYZ035>037-039>044-047>052-055>060-089>105-050700-
NORTHEAST KENTUCKY

CITY           SKY/WX    TMP DP  RH WIND       PRES   REMARKS
LEXINGTON      FOG       24  22  91 N13       30.17R VSB 3/4 WCI  12
COVINGTON      CLOUDY    22  12  65 N12       30.21S WCI  10
FRANKFORT      SNOW      23  20  88 N9        30.19R VSB 1/2 WCI  13
$$

KYZ054-064>069-076>088-106>120-050700-
SOUTHEAST KENTUCKY

CITY           SKY/WX    TMP DP  RH WIND       PRES   REMARKS
JACKSON        MIX PCPN  32  29  88 NE6       30.08S WCI  26
LONDON         LGT RAIN  33  30  88 N13       30.07F WCI  24
SOMERSET       MIX PCPN  30  30 100 N8        30.12S WCI  23
MIDDLESBORO    RAIN      37  35  92 N7        30.04R WCI  31
MONTICELLO     LGT SNOW  32  30  93 N10       30.14R FOG     WCI  24
$$



USA.gov is the U.S. government's official web portal to all federal, state and local government web resources and services.